User: anonymous   Login
Location: Unspecified
(0.0000°N, 0.0000°E)
Time: 13:50:07
(UTC+00:00)
Language:

GSAT 18 - Orbit

View from above orbital plane
View from above orbital plane
View from above satellite
View from above satellite

Ground track
Ground track

The orbit data is extracted from the following two-line orbital elements,

1 41793U 16060A   18318.64554421 -.00000076  00000-0  00000+0 0  9992
2 41793   0.0422 273.2576 0005054 205.7150 241.1065  1.00272460  7750
Epoch (UTC): 14 November 2018 15:29:35
Eccentricity: 0.0005054
inclination: 0.0422°
perigee height: 35765 km
apogee height: 35807 km
right ascension of ascending node: 273.2576°
argument of perigee: 205.7150°
revolutions per day: 1.00272460
mean anomaly at epoch: 241.1065°
orbit number at epoch: 775

The dashed part of the orbit path shows where the satellite is in the earth's shadow,  

DLR